Lid_Strength_Index
0 0 -0 -0 0 0 0 1 1 2 2 3 2 3 2 2 1 1 2 1 -0 -0 -1 -1 -1 -2 -2 -2 -2 -2 -2 -2 -2 -2 -2 -2 -2 -2 -1 -1 -1 -1 -2
0 0 0 0 -0 0 0 1 2 1 2 3 3 2 2 2 1 1 1 2 0 -0 -0 -1 -1 -1 -1 -2 -2 -2 -2 -2 -2 -2 -2 -2 -1 -1 -1 -1 -1 -1 -1
-0 0 -0 0 -0 -0 1 1 2 1 2 2 2 2 1 1 1 1 1 1 2 1 -0 -1 -1 -1 -2 -2 -2 -2 -2 -2 -2 -2 -2 -1 -1 -1 -1 -1 -1 -1 -1
-0 0 0 0 -0 0 1 1 2 3 3 2 2 2 2 2 2 1 1 1 1 1 -0 -1 -1 -1 -1 -1 -2 -1 -1 -1 -1 -1 -1 -1 -0 -0 -0 -0 -0 -0 0
-0 -0 -0 -0 0 0 1 2 3 3 3 3 3 2 1 1 1 1 1 1 1 1 1 -0 -0 0 -0 -0 -1 -1 -1 -2 -1 -0 0 1 1 1 1 1 1 2 2
-0 -0 -0 -0 1 1 1 2 3 4 3 3 2 2 2 1 1 1 1 1 0 1 1 0 1 1 0 0 -0 -1 -1 -1 0 1 2 2 2 2 3 3 3 2 2
-0 0 0 1 0 1 1 2 3 3 3 3 3 3 3 2 1 1 1 1 1 0 1 0 1 1 2 3 2 1 1 1 2 3 3 3 3 3 3 3 3 3 3
2 1 1 1 0 1 2 2 3 3 3 3 4 4 5 3 3 4 4 4 3 3 3 3 5 5 7 7 6 5 4 4 4 4 4 4 4 4 3 3 3 3 2
3 2 1 1 0 0 1 1 1 3 4 3 2 4 6 8 6 5 5 5 4 4 5 6 6 7 8 9 8 8 6 6 6 5 5 5 5 4 4 3 3 3 2
5 4 2 1 1 1 2 1 1 1 2 3 2 2 3 4 7 6 4 4 4 5 6 7 8 9 10 10 9 8 8 7 7 7 6 6 5 5 4 3 3 2 2
6 5 5 3 1 1 1 1 2 1 2 2 3 4 4 4 4 6 7 5 6 7 8 9 10 10 11 11 11 10 9 8 8 8 7 7 6 6 4 3 3 2 1
7 6 6 5 3 1 1 1 1 2 2 2 2 3 4 5 5 6 6 5 6 9 10 10 11 11 11 12 11 11 9 8 8 8 8 8 7 5 4 3 2 2 1
8 8 7 7 5 3 0 1 1 1 2 3 3 3 3 4 3 4 5 5 6 9 11 11 12 12 12 12 12 12 10 9 9 8 8 8 6 5 5 3 2 2 1
9 8 8 7 6 4 1 1 1 1 2 2 3 3 3 4 4 4 5 5 6 8 9 12 12 12 12 12 12 12 12 10 9 9 8 7 7 6 4 3 2 2 2
9 9 8 7 6 5 4 2 2 2 2 3 3 3 3 3 3 3 3 4 5 7 10 12 13 13 13 13 13 13 12 11 10 9 8 7 6 4 4 3 3 2 2
9 9 8 7 7 5 4 3 2 2 3 3 3 3 3 3 4 4 3 4 4 5 11 10 13 13 13 13 13 13 12 12 10 9 8 6 5 5 4 4 3 3 3
9 9 8 8 7 6 5 4 3 3 3 4 4 4 5 5 6 6 5 5 5 6 11 13 12 13 14 13 14 14 13 14 13 9 7 6 6 5 5 5 4 4 4
9 9 9 8 8 7 6 4 5 5 6 7 7 7 7 7 7 7 7 7 7 6 8 12 13 13 13 13 13 14 13 13 13 8 7 7 6 6 6 5 5 5 6
10 10 10 9 9 9 8 8 8 8 9 9 8 8 8 7 7 8 8 8 8 8 9 11 13 13 13 13 14 15 14 14 11 9 8 8 8 7 6 6 6 6 6
11 10 10 9 9 9 9 8 9 9 9 10 10 10 10 9 9 9 9 9 9 10 11 12 13 14 15 15 15 15 15 13 13 11 10 9 9 9 8 6 7 7 7
10 10 10 10 10 9 8 9 9 9 10 11 12 12 12 12 11 10 10 10 10 11 12 13 14 15 16 17 15 15 15 16 16 15 13 11 11 11 11 8 8 7 7
10 10 10 10 10 10 9 9 9 10 10 11 11 11 11 12 11 10 10 10 10 12 13 14 15 15 15 15 15 16 16 16 16 16 13 12 12 12 12 9 7 6 7
11 11 10 10 11 10 9 9 10 10 10 11 12 13 13 12 13 13 11 11 12 10 10 12 14 15 15 14 14 17 16 16 17 16 14 13 12 12 12 10 7 7 7
11 11 11 11 11 11 10 10 10 11 12 12 12 12 13 13 13 13 13 14 14 13 13 13 14 14 13 12 13 13 14 17 18 17 16 13 13 13 12 12 8 8 7
12 12 12 12 12 12 10 10 11 13 13 13 13 13 13 14 11 11 14 14 15 14 12 11 12 11 10 11 12 14 19 20 21 20 19 14 14 14 13 12 12 9 8
14 14 13 14 13 13 11 10 11 13 14 14 14 13 13 13 11 12 14 16 18 16 16 17 15 13 13 13 13 14 15 15 22 21 19 18 17 17 13 13 12 12 12